Weather History for Flag Island, MN

Change the Weather History Date:

Saturday, March 30, 2013

  Actual Average Record
Temperature  
Mean Temperature 30 °F -  
Max Temperature 44 °F 33 °F 46 °F (1999)
Min Temperature 17 °F 18 °F 8 °F (2009)
Degree Days  
Heating Degree Days 34    
Moisture  
Dew Point 21 °F    
Average Humidity 70    
Maximum Humidity 100    
Minimum Humidity 43    
Precipitation  
Precipitation 0.00 in - - ()
Sea Level Pressure  
Sea Level Pressure 29.85 in    
Wind  
Wind Speed 6 mph (NW)    
Max Wind Speed 18 mph    
Max Gust Speed 25 mph    
Visibility 8 miles    
Events Fog    
Averages and records for this station are not official NWS values.
T = Trace of Precipitation, MM = Missing Value Source: NWS Daily Summary

Daily Weather History Graph

Daily Weather History Graph

Search for Another Location

Airport:

Trip Planner

Search our weather history database for the weather conditions in past years. The results will help you decide how hot, cold, wet, or windy it might be!

Date:

Astronomy

Mar. 30, 2013 Rise Set
Actual Time 7:00 AM CDT 7:48 PM CDT
Civil Twilight 6:28 AM CDT 8:20 PM CDT
Nautical Twilight 5:49 AM CDT 8:59 PM CDT
Astronomical Twilight 5:09 AM CDT 9:40 PM CDT
Moon No Moon Rise 8:35 AM CDT (3/30)
Length of Visible Light 13h 52m
Length of Day
12h 47m
Waning Gibbous, 86% of the Moon is Illuminated
Mar 30
Waning Gibbous
Apr 2
Last Quarter
Apr 10
New
Apr 18
First Quarter
Apr 25
Full

Hourly Weather History & Observations

Time (CDT) Temp. Windchill Dew Point Humidity Pressure Visibility Wind Dir Wind Speed Gust Speed Precip Events Conditions
12:13 AM 24.8 °F - 19.4 °F 80% 29.96 in 10.0 mi Calm Calm - N/A   Clear
12:34 AM 28.4 °F - 21.2 °F 74% 29.95 in 10.0 mi Calm Calm - N/A   Clear
12:53 AM 26.6 °F - 21.2 °F 80% 29.95 in 10.0 mi Calm Calm - N/A   Clear
1:34 AM 24.8 °F - 21.2 °F 86% 29.94 in 10.0 mi Calm Calm - N/A   Clear
1:53 AM 21.2 °F - 19.4 °F 93% 29.94 in 7.0 mi Calm Calm - N/A   Clear
2:13 AM 21.2 °F 16.4 °F 17.6 °F 86% 29.93 in 10.0 mi SSE 3.5 mph - N/A   Clear
2:34 AM 21.2 °F 13.6 °F 17.6 °F 86% 29.92 in 10.0 mi SSE 5.8 mph - N/A   Clear
2:53 AM 21.2 °F 13.6 °F 17.6 °F 86% 29.91 in 10.0 mi SE 5.8 mph - N/A   Clear
3:13 AM 21.2 °F - 17.6 °F 86% 29.91 in 10.0 mi Calm Calm - N/A   Clear
3:33 AM 23.0 °F - 19.4 °F 86% 29.90 in 10.0 mi Calm Calm - N/A   Clear
3:54 AM 26.6 °F - 21.2 °F 80% 29.89 in 10.0 mi Calm Calm - N/A   Clear
4:13 AM 19.4 °F 12.8 °F 17.6 °F 93% 29.89 in 7.0 mi SSE 4.6 mph - N/A   Clear
4:34 AM 19.4 °F 11.5 °F 17.6 °F 93% 29.89 in 7.0 mi SSE 5.8 mph - N/A   Mostly Cloudy
4:53 AM 19.4 °F 12.8 °F 17.6 °F 93% 29.88 in 4.0 mi SSE 4.6 mph - N/A   Mostly Cloudy
5:14 AM 19.4 °F 14.3 °F 17.6 °F 93% 29.88 in 3.0 mi SSE 3.5 mph - N/A   Mostly Cloudy
5:33 AM 19.4 °F - 19.4 °F 100% 29.88 in 4.0 mi Calm Calm - N/A   Scattered Clouds
5:54 AM 21.2 °F 16.4 °F 19.4 °F 93% 29.87 in 3.0 mi South 3.5 mph - N/A   Clear
6:13 AM 19.4 °F - 17.6 °F 93% 29.87 in 1.2 mi Calm Calm - N/A   Mist
6:34 AM 17.6 °F 10.7 °F 15.8 °F 93% 29.87 in 0.2 mi SSE 4.6 mph - N/A Fog Light Freezing Fog
6:53 AM 17.6 °F 10.7 °F 15.8 °F 93% 29.87 in 1.0 mi SSE 4.6 mph - N/A   Mist
7:13 AM 17.6 °F - 15.8 °F 93% 29.87 in 2.5 mi Calm Calm - N/A   Clear
7:34 AM 19.4 °F - 17.6 °F 93% 29.87 in 0.2 mi Calm Calm - N/A Fog Light Freezing Fog
7:53 AM 23.0 °F - 21.2 °F 93% 29.86 in 1.8 mi Calm Calm - N/A   Mist
8:13 AM 21.2 °F - 19.4 °F 93% 29.86 in 0.2 mi Calm Calm - N/A Fog Light Freezing Fog
8:34 AM 19.4 °F - 17.6 °F 93% 29.86 in 0.2 mi Calm Calm - N/A Fog Light Freezing Fog
8:53 AM 21.2 °F 14.9 °F 21.2 °F 100% 29.86 in 3.0 mi NW 4.6 mph - N/A   Clear
9:13 AM 26.6 °F 16.2 °F 24.8 °F 93% 29.85 in 5.0 mi WNW 11.5 mph - N/A   Clear
9:34 AM 26.6 °F 21.2 °F 24.8 °F 93% 29.85 in 7.0 mi NW 4.6 mph - N/A   Clear
9:53 AM 28.4 °F 22.2 °F 26.6 °F 93% 29.85 in 7.0 mi NW 5.8 mph - N/A   Clear
10:13 AM 30.2 °F 23.4 °F 24.8 °F 80% 29.85 in 10.0 mi NW 6.9 mph - N/A   Scattered Clouds
10:34 AM 30.2 °F 22.6 °F 24.8 °F 80% 29.85 in 10.0 mi NW 8.1 mph - N/A   Clear
10:53 AM 33.8 °F 27.0 °F 26.6 °F 75% 29.85 in 10.0 mi NNW 8.1 mph - N/A   Clear
11:13 AM 35.6 °F 28.0 °F 26.6 °F 70% 29.85 in 10.0 mi NNW 10.4 mph - N/A   Clear
11:34 AM 35.6 °F 28.0 °F 26.6 °F 70% 29.85 in 10.0 mi NNW 10.4 mph - N/A   Clear
11:53 AM 37.4 °F 30.3 °F 26.6 °F 65% 29.85 in 10.0 mi NNW 10.4 mph - N/A   Clear
12:13 PM 39.2 °F 32.0 °F 26.6 °F 61% 29.85 in 10.0 mi NNW 11.5 mph - N/A   Clear
12:33 PM 39.2 °F 31.6 °F 24.8 °F 56% 29.85 in 10.0 mi NNW 12.7 mph - N/A   Clear
12:53 PM 41.0 °F 33.1 °F 24.8 °F 53% 29.85 in 10.0 mi NNW 15.0 mph - N/A   Clear
1:14 PM 42.8 °F 35.8 °F 24.8 °F 49% 29.84 in 10.0 mi NNW 13.8 mph - N/A   Clear
1:33 PM 41.0 °F 32.8 °F 24.8 °F 53% 29.84 in 10.0 mi NNW 16.1 mph - N/A   Clear
1:53 PM 42.8 °F 36.2 °F 24.8 °F 49% 29.84 in 10.0 mi NNW 12.7 mph - N/A   Clear
2:14 PM 42.8 °F 36.2 °F 24.8 °F 49% 29.83 in 10.0 mi NNW 12.7 mph - N/A   Clear
2:33 PM 44.6 °F 39.2 °F 23.0 °F 43% 29.83 in 10.0 mi NNW 10.4 mph - N/A   Clear
2:53 PM 42.8 °F 37.5 °F 24.8 °F 49% 29.83 in 10.0 mi NNW 9.2 mph - N/A   Clear
3:14 PM 42.8 °F 37.0 °F 24.8 °F 49% 29.83 in 10.0 mi NW 10.4 mph - N/A   Clear
3:33 PM 42.8 °F 35.4 °F 24.8 °F 49% 29.83 in 10.0 mi NNW 15.0 mph - N/A   Mostly Cloudy
3:53 PM 42.8 °F 35.8 °F 24.8 °F 49% 29.83 in 10.0 mi NNW 13.8 mph - N/A   Overcast
4:14 PM 42.8 °F 35.4 °F 24.8 °F 49% 29.83 in 10.0 mi NW 15.0 mph - N/A   Overcast
4:33 PM 41.0 °F 33.1 °F 24.8 °F 53% 29.82 in 10.0 mi NW 15.0 mph - N/A   Scattered Clouds
4:53 PM 39.2 °F 29.8 °F 24.8 °F 56% 29.83 in 10.0 mi NW 18.4 mph - N/A   Clear
5:13 PM 39.2 °F 29.8 °F 19.4 °F 45% 29.82 in 10.0 mi NW 18.4 mph - N/A   Clear
5:33 PM 39.2 °F 30.2 °F 21.2 °F 49% 29.83 in 10.0 mi NW 17.3 mph - N/A   Mostly Cloudy
5:54 PM 39.2 °F 29.8 °F 21.2 °F 49% 29.82 in 10.0 mi NW 18.4 mph 25.3 mph N/A   Mostly Cloudy
6:13 PM 39.2 °F 30.2 °F 21.2 °F 49% 29.82 in 10.0 mi NW 17.3 mph - N/A   Scattered Clouds
6:33 PM 39.2 °F 30.5 °F 21.2 °F 49% 29.82 in 10.0 mi NW 16.1 mph 20.7 mph N/A   Clear
6:53 PM 39.2 °F 31.2 °F 19.4 °F 45% 29.81 in 10.0 mi NW 13.8 mph - N/A   Mostly Cloudy
7:14 PM 37.4 °F 30.3 °F 19.4 °F 48% 29.81 in 10.0 mi NW 10.4 mph - N/A   Scattered Clouds
7:33 PM 37.4 °F 30.3 °F 17.6 °F 45% 29.80 in 10.0 mi NW 10.4 mph - N/A   Clear
7:53 PM 35.6 °F 28.6 °F 19.4 °F 52% 29.80 in 10.0 mi NW 9.2 mph - N/A   Clear
8:14 PM 35.6 °F 28.0 °F 19.4 °F 52% 29.80 in 10.0 mi NW 10.4 mph - N/A   Scattered Clouds
8:33 PM 35.6 °F 27.1 °F 21.2 °F 56% 29.80 in 10.0 mi NW 12.7 mph - N/A   Mostly Cloudy
8:54 PM 33.8 °F 25.3 °F 19.4 °F 56% 29.80 in 10.0 mi NW 11.5 mph - N/A   Scattered Clouds
9:13 PM 33.8 °F 25.3 °F 19.4 °F 56% 29.80 in 10.0 mi NW 11.5 mph - N/A   Clear
9:33 PM 33.8 °F 25.3 °F 19.4 °F 56% 29.80 in 10.0 mi WNW 11.5 mph - N/A   Mostly Cloudy
9:53 PM 33.8 °F 25.8 °F 17.6 °F 52% 29.80 in 10.0 mi WNW 10.4 mph - N/A   Overcast
10:34 PM 32.0 °F 23.0 °F 17.6 °F 55% 29.80 in 10.0 mi WNW 11.5 mph - N/A   Overcast
10:53 PM 30.2 °F 19.8 °F 19.4 °F 64% 29.79 in 10.0 mi WNW 13.8 mph - N/A   Overcast
11:14 PM 30.2 °F 21.9 °F 17.6 °F 60% 29.79 in 10.0 mi WNW 9.2 mph - N/A   Overcast
11:33 PM 30.2 °F 20.8 °F 21.2 °F 69% 29.78 in 10.0 mi WNW 11.5 mph - N/A   Overcast
11:53 PM 30.2 °F 20.2 °F 21.2 °F 69% 29.78 in 10.0 mi WNW 12.7 mph - N/A   Overcast